period_start,C,m1,H,J0,J1,J2,J3,J4,J5,JA,JB,JC,JD,JJ,JK,JN,#
2018-01-29 00:03:52,0.17,2.74,0.00,24.58,26.62,29.86,13.94,48.17,1026.87,2025.91,2433.12,2406.90,2754.83,600.04,599.08,21.01,0000 0000 0000 0000 000000
2018-01-29 00:08:53,0.21,2.75,0.00,24.57,26.62,29.87,13.95,48.29,1026.87,2025.94,2430.32,2404.81,2752.49,600.47,599.34,21.06,0000 0000 0000 0000 000000
2018-01-29 00:13:54,0.26,2.76,0.00,24.58,26.62,29.86,14.07,48.24,1026.87,2025.95,2426.78,2402.16,2749.57,600.28,599.13,21.11,0000 0000 0000 0000 000000
2018-01-29 00:18:56,0.26,2.78,0.00,24.58,26.62,29.86,14.03,48.22,1026.85,2025.90,2422.89,2399.36,2746.36,600.36,599.23,21.16,0000 0000 0000 0000 000000
2018-01-29 00:23:57,0.22,2.79,0.00,24.59,26.62,29.86,13.93,48.22,1026.68,2025.96,2419.60,2397.07,2744.00,599.61,598.50,21.21,0000 0000 0000 0000 000000
2018-01-29 00:28:58,0.22,2.80,0.00,24.58,26.62,29.86,13.87,48.19,1026.48,2025.95,2416.66,2394.75,2741.28,600.12,598.86,21.26,0000 0000 0000 0000 000000
2018-01-29 00:33:59,0.26,2.81,0.00,24.58,26.61,29.84,13.94,48.21,1026.43,2025.92,2413.07,2392.09,2738.13,600.02,598.61,21.31,0000 0000 0000 0000 000000
2018-01-29 00:39:01,0.25,2.82,0.00,24.57,26.60,29.87,14.00,48.17,1026.43,2025.75,2409.26,2389.39,2735.12,599.90,598.47,21.36,0000 0000 0000 0000 000000
2018-01-29 00:44:02,0.23,2.84,0.00,24.58,26.60,29.86,13.97,48.16,1026.42,2025.81,2405.89,2387.02,2732.47,600.31,598.77,21.41,0000 0000 0000 0000 000000
2018-01-29 00:49:03,0.24,2.85,0.00,24.56,26.60,29.88,13.96,48.18,1026.40,2025.88,2402.51,2384.60,2729.84,600.07,598.70,21.46,0000 0000 0000 0000 000000
2018-01-29 00:54:05,0.23,2.86,0.00,24.57,26.60,29.87,14.02,48.24,1026.39,2025.85,2399.13,2382.20,2727.12,600.31,598.89,21.51,0000 0000 0000 0000 000000
2018-01-29 00:59:06,0.24,2.87,0.00,24.55,26.60,29.87,13.96,48.19,1026.39,2025.87,2395.79,2379.82,2724.54,599.59,598.19,21.56,0000 0000 0000 0000 000000
2018-01-29 01:04:07,0.23,2.88,0.00,24.57,26.59,29.82,13.93,48.17,1026.40,2025.92,2392.78,2377.44,2721.64,600.01,598.54,21.61,0000 0000 0000 0000 000000
2018-01-29 01:09:08,0.20,2.90,0.00,24.57,26.59,29.80,13.92,48.08,1026.39,2025.69,2389.51,2375.05,2718.81,600.02,598.66,21.66,0000 0000 0000 0000 000000
2018-01-29 01:14:10,0.22,2.91,0.00,24.58,26.57,29.80,13.91,48.13,1026.38,2025.72,2386.40,2372.88,2716.41,599.85,598.42,21.71,0000 0000 0000 0000 000000
2018-01-29 01:19:11,0.22,2.92,0.00,24.56,26.57,29.80,13.91,48.17,1026.38,2025.68,2383.20,2370.59,2713.86,599.72,598.37,21.76,0000 0000 0000 0000 000000
2018-01-29 01:24:12,0.23,2.93,0.00,24.56,26.57,29.82,13.92,48.14,1026.38,2025.80,2380.15,2368.38,2711.25,600.04,598.78,21.81,0000 0000 0000 0000 000000
2018-01-29 01:29:14,0.17,2.94,0.00,24.56,26.57,29.83,13.88,48.08,1026.38,2025.66,2377.18,2366.36,2708.81,599.97,598.57,21.86,0000 0000 0000 0000 000000
2018-01-29 01:34:15,0.19,2.95,0.00,24.55,26.57,29.79,14.01,48.12,1026.38,2025.53,2374.37,2364.32,2706.46,600.15,598.72,21.91,0000 0000 0000 0000 000000
2018-01-29 01:39:16,0.22,2.96,0.00,24.55,26.56,29.81,13.91,48.13,1026.38,2025.72,2371.60,2362.33,2704.25,599.62,598.38,21.96,0000 0000 0000 0000 000000
2018-01-29 01:44:18,0.19,2.97,0.00,24.55,26.55,29.79,13.92,48.03,1026.32,2025.84,2369.16,2360.42,2702.00,599.80,598.42,22.01,0000 0000 0000 0000 000000
2018-01-29 01:49:19,0.20,2.98,0.00,24.56,26.55,29.79,13.95,48.08,1026.35,2025.94,2366.55,2358.52,2699.96,600.07,598.65,22.06,0000 0000 0000 0000 000000
2018-01-29 01:54:21,0.20,2.99,0.00,24.56,26.55,29.79,14.04,48.16,1026.26,2025.96,2363.75,2356.50,2697.71,600.11,598.60,22.11,0000 0000 0000 0000 000000
2018-01-29 01:59:22,0.23,3.00,0.00,24.57,26.55,29.78,13.97,48.15,1026.22,2025.97,2360.74,2354.31,2695.39,600.20,598.74,22.16,0000 0000 0000 0000 000000
2018-01-29 02:04:23,0.22,3.01,0.00,24.56,26.54,29.75,14.00,48.09,1026.31,2025.98,2357.65,2352.07,2692.73,600.54,599.01,22.21,0000 0000 0000 0000 000000
2018-01-29 02:09:25,0.21,3.02,0.00,24.57,26.53,29.77,13.99,48.15,1026.11,2025.98,2354.81,2349.86,2690.17,600.25,598.63,22.26,0000 0000 0000 0000 000000
2018-01-29 02:14:26,0.21,3.03,0.00,24.57,26.53,29.77,13.92,48.12,1026.26,2025.98,2351.87,2347.76,2687.79,599.84,598.53,22.31,0000 0000 0000 0000 000000
2018-01-29 02:19:27,0.20,3.04,0.00,24.59,26.53,29.77,13.87,48.21,1026.09,2025.96,2349.03,2345.70,2685.58,599.52,597.90,22.36,0000 0000 0000 0000 000000
2018-01-29 02:24:28,0.21,3.06,0.00,24.58,26.52,29.74,13.90,48.27,1025.91,2025.97,2346.21,2343.62,2683.28,600.08,598.26,22.41,0000 0000 0000 0000 000000
2018-01-29 02:29:30,0.25,3.07,0.00,24.57,26.52,29.74,14.00,48.24,1025.90,2025.98,2342.87,2341.24,2680.58,600.33,598.69,22.46,0000 0000 0000 0000 000000
2018-01-29 02:34:31,0.25,3.08,0.00,24.56,26.52,29.75,13.88,48.27,1025.90,2025.99,2339.44,2338.82,2677.93,599.62,597.96,22.51,0000 0000 0000 0000 000000
2018-01-29 02:39:32,0.23,3.09,0.00,24.55,26.52,29.77,13.94,48.18,1025.91,2025.99,2336.29,2336.56,2675.31,599.96,598.27,22.56,0000 0000 0000 0000 000000
2018-01-29 02:44:34,0.27,3.10,0.00,24.57,26.52,29.77,13.94,48.13,1025.91,2025.98,2332.97,2334.04,2672.43,600.05,598.37,22.61,0000 0000 0000 0000 000000
2018-01-29 02:49:35,0.37,3.12,0.00,24.56,26.52,29.76,14.00,48.33,1025.90,2025.97,2328.43,2330.57,2668.49,600.27,598.60,22.66,0000 0000 0000 0000 000000
2018-01-29 02:54:37,0.38,3.14,0.00,24.56,26.53,29.76,13.92,48.20,1025.88,2025.97,2323.42,2326.73,2664.18,599.92,598.14,22.71,0000 0000 0000 0000 000000
2018-01-29 02:59:38,0.62,3.17,0.00,24.56,26.53,29.77,13.94,48.08,1025.88,2025.94,2316.40,2321.25,2657.91,599.95,598.30,22.76,0000 0000 0000 0000 000000
2018-01-29 03:04:39,0.52,3.20,0.00,24.57,26.53,29.79,13.95,48.09,1025.87,2025.88,2308.89,2315.62,2651.67,600.04,598.34,22.81,0000 0000 0000 0000 000000
2018-01-29 03:09:40,0.29,3.22,0.00,24.57,26.53,29.78,14.01,48.22,1025.76,2025.78,2304.40,2312.29,2647.86,600.23,598.56,22.86,0000 0000 0000 0000 000000
2018-01-29 03:14:42,0.29,3.23,0.00,24.57,26.52,29.76,13.92,48.17,1025.62,2025.55,2300.48,2309.29,2644.54,599.97,598.16,22.91,0000 0000 0000 0000 000000
2018-01-29 03:19:43,0.40,3.25,0.00,24.57,26.52,29.76,13.92,48.13,1025.77,2025.69,2295.56,2305.64,2640.55,600.02,598.31,22.96,0000 0000 0000 0000 000000
2018-01-29 03:24:44,0.46,3.27,0.00,24.57,26.52,29.78,13.91,48.20,1025.87,2025.78,2289.92,2301.55,2636.01,600.19,598.48,23.01,0000 0000 0000 0000 000000
2018-01-29 03:29:46,0.50,3.29,0.00,24.58,26.52,29.80,13.90,48.19,1025.89,2025.90,2283.58,2296.85,2630.84,600.07,598.24,23.06,0000 0000 0000 0000 000000
2018-01-29 03:34:47,0.44,3.32,0.00,24.57,26.52,29.79,13.93,48.14,1025.89,2025.82,2277.61,2292.47,2625.86,599.99,598.30,23.11,0000 0000 0000 0000 000000
2018-01-29 03:39:48,0.36,3.34,0.00,24.57,26.52,29.78,14.00,48.02,1025.89,2025.80,2272.80,2288.74,2621.68,599.86,598.25,23.16,0000 0000 0000 0000 000000
2018-01-29 03:44:50,0.23,3.35,0.00,24.58,26.52,29.75,13.92,48.06,1025.90,2025.56,2269.35,2286.03,2618.36,600.15,598.38,23.21,0000 0000 0000 0000 000000
2018-01-29 03:49:51,0.24,3.36,0.00,24.59,26.52,29.74,13.94,48.09,1025.90,2025.40,2266.02,2283.59,2615.75,600.00,598.24,23.26,0000 0000 0000 0000 000000
2018-01-29 03:54:52,0.22,3.38,0.00,24.60,26.52,29.75,13.90,48.13,1025.90,2025.31,2262.90,2281.33,2613.30,599.77,598.00,23.31,0000 0000 0000 0000 000000
2018-01-29 03:59:54,0.30,3.39,0.00,24.61,26.52,29.77,13.96,48.06,1025.89,2025.16,2259.40,2278.64,2610.09,599.94,598.13,23.36,0000 0000 0000 0000 000000
2018-01-29 04:04:55,0.40,3.41,0.00,24.64,26.52,29.76,14.02,48.12,1025.88,2025.18,2254.28,2274.97,2606.11,600.27,598.38,23.41,0000 0000 0000 0000 000000
2018-01-29 04:09:56,0.26,3.43,0.00,24.68,26.52,29.73,13.96,48.27,1025.90,2025.16,2250.42,2272.26,2603.14,599.96,598.10,23.46,0000 0000 0000 0000 000000
2018-01-29 04:14:57,0.30,3.44,0.00,24.69,26.52,29.75,13.87,48.31,1025.90,2025.26,2246.83,2269.56,2600.30,599.86,597.93,23.51,0000 0000 0000 0000 000000
2018-01-29 04:19:59,0.28,3.45,0.00,24.68,26.52,29.75,13.97,48.36,1025.90,2025.23,2243.31,2267.03,2597.47,600.15,598.24,23.56,0000 0000 0000 0000 000000
2018-01-29 04:24:59,0.32,3.47,0.00,24.67,26.52,29.74,13.93,48.11,1025.86,2025.41,2239.51,2264.07,2594.01,599.61,597.64,23.61,0000 0000 0000 0000 000000
2018-01-29 04:30:01,0.32,3.48,0.00,24.65,26.52,29.74,13.93,48.23,1025.84,2025.23,2235.45,2260.98,2590.39,599.92,597.95,23.66,0000 0000 0000 0000 000000
2018-01-29 04:35:02,0.28,3.50,0.00,24.65,26.52,29.82,13.95,48.14,1025.86,2025.06,2231.47,2258.17,2587.28,599.73,597.96,23.71,0000 0000 0000 0000 000000
2018-01-29 04:40:03,0.30,3.52,0.00,24.63,26.54,29.79,13.93,48.07,1025.65,2025.05,2227.73,2255.43,2584.20,599.77,597.80,23.76,0000 0000 0000 0000 000000
2018-01-29 04:45:04,0.36,3.53,0.00,24.61,26.54,29.80,13.93,48.17,1025.46,2025.04,2223.34,2252.17,2580.57,600.00,597.97,23.81,0000 0000 0000 0000 000000
2018-01-29 04:50:06,0.36,3.55,0.00,24.61,26.54,29.81,14.06,48.23,1025.44,2025.01,2218.83,2248.87,2576.82,600.34,598.17,23.86,0000 0000 0000 0000 000000
2018-01-29 04:55:07,0.29,3.57,0.00,24.62,26.54,29.81,13.89,48.15,1025.44,2025.00,2214.82,2245.93,2573.50,600.01,597.88,23.91,0000 0000 0000 0000 000000
2018-01-29 05:00:08,0.23,3.58,0.00,24.63,26.55,29.79,13.93,48.11,1025.46,2025.02,2212.04,2243.80,2571.10,599.93,597.88,23.97,0000 0000 0000 0000 000000
2018-01-29 05:05:10,0.22,3.59,0.00,24.62,26.55,29.80,13.88,48.04,1025.50,2025.00,2209.25,2241.65,2568.60,599.84,597.82,24.02,0000 0000 0000 0000 000000
2018-01-29 05:10:11,0.22,3.60,0.00,24.59,26.55,29.78,13.90,48.11,1025.51,2025.02,2206.54,2239.64,2566.23,599.98,597.94,24.07,0000 0000 0000 0000 000000
2018-01-29 05:15:13,0.21,3.61,0.00,24.60,26.55,29.81,13.89,47.97,1025.51,2025.01,2203.78,2237.72,2563.92,599.93,597.89,24.12,0000 0000 0000 0000 000000
2018-01-29 05:20:14,0.25,3.63,0.00,24.59,26.55,29.80,13.89,48.17,1025.42,2025.01,2200.70,2235.48,2561.42,599.81,597.80,24.17,0000 0000 0000 0000 000000
2018-01-29 05:25:15,0.27,3.64,0.00,24.58,26.54,29.80,13.88,48.17,1025.42,2025.00,2197.19,2232.96,2558.75,599.93,597.95,24.22,0000 0000 0000 0000 000000
2018-01-29 05:30:16,0.28,3.65,0.00,24.55,26.54,29.78,13.94,48.17,1025.41,2025.01,2193.80,2230.48,2555.97,599.91,597.93,24.27,0000 0000 0000 0000 000000
2018-01-29 05:35:17,0.31,3.67,0.00,24.55,26.53,29.78,13.91,48.11,1025.41,2025.00,2189.93,2227.80,2552.91,599.90,598.05,24.32,0000 0000 0000 0000 000000
2018-01-29 05:40:19,0.45,3.69,0.00,24.54,26.52,29.80,13.92,48.10,1025.41,2025.01,2184.61,2224.20,2548.88,599.95,597.96,24.37,0000 0000 0000 0000 000000
2018-01-29 05:45:20,0.54,3.72,0.00,24.54,26.52,29.81,13.94,48.19,1025.41,2025.01,2177.83,2219.56,2543.70,599.98,598.01,24.42,0000 0000 0000 0000 000000
2018-01-29 05:50:22,0.55,3.74,0.00,24.50,26.52,29.81,13.95,48.17,1025.41,2025.01,2171.05,2214.83,2538.38,600.16,598.30,24.47,0000 0000 0000 0000 000000
2018-01-29 05:55:23,0.54,3.77,0.00,24.51,26.52,29.79,13.89,48.13,1025.42,2025.01,2164.33,2210.02,2532.99,600.01,598.27,24.52,0000 0000 0000 0000 000000
2018-01-29 06:00:24,0.50,3.80,0.00,24.50,26.52,29.77,14.03,48.10,1025.43,2025.00,2158.11,2205.56,2528.00,600.39,598.57,24.57,0000 0000 0000 0000 000000
2018-01-29 06:05:26,0.48,3.82,0.00,24.49,26.52,29.78,13.93,48.12,1025.42,2025.00,2152.15,2201.36,2523.27,600.02,598.15,24.62,0000 0000 0000 0000 000000
2018-01-29 06:10:27,0.40,3.84,0.00,24.43,26.50,29.77,13.90,48.10,1025.42,2025.00,2146.84,2197.69,2519.17,599.74,598.11,24.67,0000 0000 0000 0000 000000
2018-01-29 06:15:28,0.41,3.86,0.00,24.42,26.50,29.76,13.93,48.20,1025.41,2025.01,2141.72,2194.30,2515.34,599.70,597.97,24.72,0000 0000 0000 0000 000000
2018-01-29 06:20:29,0.43,3.88,0.00,24.44,26.50,29.77,13.99,48.20,1025.41,2025.00,2136.37,2190.66,2511.11,600.03,598.24,24.77,0000 0000 0000 0000 000000
2018-01-29 06:25:31,0.42,3.91,0.00,24.47,26.50,29.74,14.00,48.10,1025.41,2025.00,2131.22,2187.04,2506.97,600.20,598.39,24.82,0000 0000 0000 0000 000000
2018-01-29 06:30:32,0.42,3.93,0.00,24.39,26.48,29.75,13.97,48.00,1025.41,2025.00,2125.99,2183.62,2503.11,600.25,598.55,24.87,0000 0000 0000 0000 000000
2018-01-29 06:35:33,0.41,3.95,0.00,24.18,26.47,29.80,13.94,48.08,1025.42,2025.01,2120.60,2180.22,2499.39,600.19,599.00,24.92,0000 0000 0000 0000 000000
2018-01-29 06:40:34,0.38,3.97,0.00,23.98,26.46,29.80,14.11,48.23,1025.43,2025.01,2115.53,2176.91,2495.77,600.40,599.62,24.97,0000 0000 0000 0000 000000
2018-01-29 06:45:35,0.33,3.99,0.00,23.77,26.45,29.68,13.99,48.23,1025.45,2025.03,2111.16,2174.04,2492.49,599.77,599.43,25.02,0000 0000 0000 0000 000000
2018-01-29 06:50:37,0.18,4.00,0.00,23.59,26.45,29.65,14.01,48.26,1025.48,2025.03,2108.50,2172.16,2490.38,599.79,599.66,25.07,0000 0000 0000 0000 000000
2018-01-29 06:55:38,0.11,4.01,0.00,23.40,26.42,29.61,14.03,48.33,1025.43,2025.04,2106.99,2171.13,2489.22,599.97,600.29,25.12,0000 0000 0000 0000 000000
2018-01-29 07:00:39,0.12,4.01,0.00,23.28,26.42,29.58,14.01,48.21,1025.41,2025.15,2105.73,2170.24,2488.20,599.75,600.39,25.17,0000 0000 0000 0000 000000
2018-01-29 07:05:41,0.11,4.02,0.00,23.15,26.41,29.59,14.10,48.27,1025.42,2025.31,2104.70,2169.55,2487.40,600.07,600.95,25.22,0000 0000 0000 0000 000000
2018-01-29 07:10:42,0.09,4.02,0.00,23.05,26.40,29.61,14.05,48.29,1025.42,2025.48,2103.68,2168.90,2486.58,599.82,600.94,25.27,0000 0000 0000 0000 000000
2018-01-29 07:15:43,0.10,4.03,0.00,22.96,26.39,29.60,14.12,48.29,1025.42,2025.74,2102.69,2168.08,2485.83,600.15,601.37,25.32,0000 0000 0000 0000 000000
2018-01-29 07:20:44,0.10,4.03,0.00,22.88,26.37,29.63,14.11,48.34,1025.43,2025.88,2101.66,2167.46,2485.01,599.77,601.15,25.37,0000 0000 0000 0000 000000
2018-01-29 07:25:45,0.13,4.04,0.00,22.83,26.37,29.61,14.09,48.29,1025.44,2025.91,2100.31,2166.50,2483.75,599.68,601.24,25.42,0000 0000 0000 0000 000000
2018-01-29 07:30:46,0.21,4.05,0.00,22.78,26.35,29.63,14.10,48.23,1025.53,2025.88,2097.81,2164.88,2481.92,599.82,601.52,25.47,0000 0000 0000 0000 000000
2018-01-29 07:35:48,0.28,4.06,0.00,22.72,26.35,29.61,14.05,48.26,1025.56,2025.88,2094.39,2162.71,2479.42,599.86,601.84,25.52,0000 0000 0000 0000 000000
2018-01-29 07:40:49,0.39,4.08,0.00,22.66,26.33,29.58,14.13,48.27,1025.66,2025.93,2089.87,2159.86,2476.17,600.03,602.07,25.57,0000 0000 0000 0000 000000
2018-01-29 07:45:50,0.42,4.10,0.00,22.61,26.32,29.56,14.18,48.27,1025.65,2025.96,2084.61,2156.43,2472.31,600.09,602.21,25.62,0000 0000 0000 0000 000000
2018-01-29 07:50:52,0.39,4.12,0.00,22.56,26.30,29.55,14.12,48.29,1025.72,2025.97,2079.79,2153.36,2468.82,600.11,602.32,25.67,0000 0000 0000 0000 000000
2018-01-29 07:55:53,0.40,4.14,0.00,22.53,26.29,29.56,14.19,48.30,1025.65,2025.97,2074.88,2150.21,2465.26,600.24,602.52,25.72,0000 0000 0000 0000 000000
2018-01-29 08:00:55,0.37,4.16,0.00,22.49,26.27,29.54,14.09,48.32,1025.55,2025.97,2070.14,2147.26,2461.84,599.96,602.27,25.77,0000 0000 0000 0000 000000
2018-01-29 08:05:56,0.31,4.18,0.00,22.46,26.25,29.51,14.13,48.36,1025.62,2025.99,2066.13,2144.74,2459.04,600.15,602.56,25.82,0000 0000 0000 0000 000000
2018-01-29 08:10:57,0.33,4.19,0.00,22.41,26.24,29.50,14.08,48.40,1025.73,2025.99,2062.14,2142.17,2456.18,599.65,602.21,25.87,0000 0000 0000 0000 000000
2018-01-29 08:15:58,0.41,4.21,0.00,22.37,26.22,29.46,14.02,48.35,1025.75,2025.99,2057.53,2138.94,2452.54,599.76,602.34,25.92,0000 0000 0000 0000 000000
2018-01-29 08:20:59,0.37,4.23,0.00,22.33,26.20,29.44,14.16,48.54,1025.86,2025.99,2053.03,2135.80,2449.00,600.21,603.02,25.97,0000 0000 0000 0000 000000
2018-01-29 08:26:00,0.30,4.25,0.00,22.31,26.18,29.42,14.20,48.60,1025.89,2025.99,2049.37,2133.22,2446.05,600.09,602.97,26.02,0000 0000 0000 0000 000000
2018-01-29 08:31:02,0.36,4.26,0.00,22.27,26.16,29.38,14.16,48.42,1025.89,2026.02,2045.72,2130.39,2442.71,600.00,602.92,26.07,0000 0000 0000 0000 000000
2018-01-29 08:36:03,0.35,4.28,0.00,22.23,26.13,29.38,14.21,48.46,1025.89,2026.02,2041.66,2127.46,2439.40,600.14,603.20,26.12,0000 0000 0000 0000 000000
2018-01-29 08:41:04,0.31,4.30,0.00,22.20,26.11,29.35,14.07,48.36,1025.89,2026.04,2038.10,2124.96,2436.56,599.84,602.84,26.17,0000 0000 0000 0000 000000
2018-01-29 08:46:06,0.36,4.32,0.00,22.15,26.08,29.33,14.21,48.44,1025.89,2026.04,2034.08,2122.06,2433.26,600.22,603.35,26.22,0000 0000 0000 0000 000000
2018-01-29 08:51:07,0.34,4.34,0.00,22.11,26.06,29.29,14.15,48.43,1025.89,2026.10,2030.36,2119.40,2430.35,600.08,603.37,26.27,0000 0000 0000 0000 000000
2018-01-29 08:56:08,0.41,4.35,0.00,22.09,26.03,29.28,14.15,48.45,1025.84,2026.40,2026.23,2116.50,2427.12,599.96,603.22,26.32,0000 0000 0000 0000 000000
2018-01-29 09:01:10,0.36,4.37,0.00,22.05,26.01,29.25,14.22,48.53,1025.82,2026.81,2022.30,2113.82,2424.19,599.97,603.29,26.37,0000 0000 0000 0000 000000
2018-01-29 09:06:11,0.33,4.39,0.00,22.01,25.98,29.24,14.06,48.50,1025.54,2026.94,2018.59,2111.35,2421.31,599.83,603.15,26.42,0000 0000 0000 0000 000000
2018-01-29 09:11:12,0.29,4.41,0.00,21.97,25.95,29.22,14.18,48.51,1025.64,2026.98,2015.13,2109.08,2418.63,599.98,603.37,26.47,0000 0000 0000 0000 000000
2018-01-29 09:16:14,0.25,4.42,0.00,21.94,25.92,29.19,14.08,48.43,1025.76,2026.99,2012.26,2107.11,2416.38,599.59,603.05,26.52,0000 0000 0000 0000 000000
2018-01-29 09:21:15,0.26,4.43,0.00,21.92,25.89,29.16,14.23,48.52,1025.85,2026.99,2008.78,2105.19,2414.26,600.28,603.84,26.57,0000 0000 0000 0000 000000
2018-01-29 09:26:17,0.28,4.45,0.00,21.88,25.86,29.12,14.12,48.54,1025.82,2027.01,2004.86,2103.29,2412.14,600.10,603.71,26.62,0000 0000 0000 0000 000000
2018-01-29 09:31:18,0.25,4.46,0.00,21.86,25.83,29.11,14.08,48.63,1025.89,2027.13,2001.57,2101.64,2410.27,599.59,603.40,26.67,0000 0000 0000 0000 000000
2018-01-29 09:36:20,0.25,4.47,0.00,21.81,25.80,29.06,14.21,48.64,1025.89,2027.54,1998.78,2100.26,2408.61,600.11,603.99,26.72,0000 0000 0000 0000 000000
2018-01-29 09:41:21,0.14,4.48,0.00,21.78,25.76,29.03,14.11,48.68,1025.89,2027.80,1997.04,2099.25,2407.58,599.76,603.72,26.77,0000 0000 0000 0000 000000
2018-01-29 09:46:22,0.09,4.49,0.00,21.74,25.73,29.01,14.24,48.59,1025.89,2027.96,1995.91,2098.70,2406.75,600.12,604.18,26.82,0000 0000 0000 0000 000000
2018-01-29 09:51:24,0.21,4.50,0.00,21.70,25.70,28.97,14.14,48.55,1025.87,2027.98,1993.94,2097.31,2405.11,600.02,604.23,26.87,0000 0000 0000 0000 000000
2018-01-29 09:56:25,0.30,4.51,0.00,21.68,25.67,28.94,14.21,48.59,1025.70,2027.99,1990.56,2095.12,2402.56,600.24,604.28,26.92,0000 0000 0000 0000 000000
2018-01-29 10:01:26,0.30,4.53,0.00,21.66,25.64,28.91,14.28,48.67,1025.42,2027.99,1986.96,2092.77,2399.98,600.05,603.95,26.97,0000 0000 0000 0000 000000
2018-01-29 10:06:28,0.30,4.54,0.00,21.62,25.61,28.92,14.27,48.75,1025.41,2028.00,1983.41,2090.49,2397.37,600.18,604.33,27.02,0000 0000 0000 0000 000000
2018-01-29 10:11:29,0.33,4.56,0.00,21.60,25.57,28.86,14.19,48.80,1025.41,2028.03,1979.78,2088.19,2394.83,599.50,603.68,27.07,0000 0000 0000 0000 000000
2018-01-29 10:16:30,0.29,4.57,0.00,21.56,25.54,28.83,14.23,48.83,1025.42,2028.15,1976.39,2086.08,2392.43,600.03,604.10,27.12,0000 0000 0000 0000 000000
2018-01-29 10:21:31,0.35,4.59,0.00,21.54,25.51,28.83,14.25,48.74,1025.44,2028.64,1973.16,2084.01,2390.07,600.03,604.31,27.17,0000 0000 0000 0000 000000
2018-01-29 10:26:33,0.29,4.61,0.00,21.50,25.48,28.80,14.30,48.76,1025.41,2028.94,1969.97,2081.87,2387.64,600.33,604.64,27.22,0000 0000 0000 0000 000000
2018-01-29 10:31:34,0.28,4.62,0.00,21.46,25.45,28.75,14.21,48.64,1025.41,2028.98,1966.79,2079.79,2385.24,599.85,604.12,27.27,0000 0000 0000 0000 000000
2018-01-29 10:36:36,0.27,4.63,0.00,21.43,25.42,28.70,14.22,48.58,1025.41,2028.99,1963.84,2077.68,2382.66,600.10,604.49,27.32,0000 0000 0000 0000 000000
2018-01-29 10:41:37,0.25,4.65,0.00,21.40,25.39,28.68,14.22,48.57,1025.41,2028.99,1960.97,2075.79,2380.48,600.01,604.57,27.37,0000 0000 0000 0000 000000
2018-01-29 10:46:38,0.24,4.66,0.00,21.37,25.36,28.65,14.21,48.53,1025.41,2028.99,1958.26,2074.00,2378.49,600.03,604.57,27.42,0000 0000 0000 0000 000000
2018-01-29 10:51:39,0.23,4.67,0.00,21.35,25.32,28.64,14.20,48.63,1025.41,2029.00,1955.52,2072.18,2376.47,599.98,604.65,27.47,0000 0000 0000 0000 000000
2018-01-29 10:56:41,0.25,4.68,0.00,21.32,25.29,28.57,14.13,48.66,1025.40,2029.02,1952.78,2070.41,2374.46,600.31,604.92,27.53,0000 0000 0000 0000 000000
2018-01-29 11:01:42,0.29,4.70,0.00,21.29,25.26,28.57,14.21,48.73,1025.40,2029.21,1949.88,2068.56,2372.43,599.90,604.67,27.58,0000 0000 0000 0000 000000
2018-01-29 11:06:43,0.31,4.71,0.00,21.26,25.23,28.53,14.21,48.67,1025.40,2029.67,1946.94,2066.69,2370.38,599.96,604.67,27.63,0000 0000 0000 0000 000000
2018-01-29 11:11:45,0.25,4.73,0.00,21.23,25.21,28.48,14.18,48.87,1025.38,2029.95,1944.21,2064.89,2368.43,600.04,604.84,27.68,0000 0000 0000 0000 000000
2018-01-29 11:16:46,0.23,4.74,0.00,21.19,25.17,28.43,14.13,48.88,1025.40,2029.98,1941.53,2063.19,2366.64,599.64,604.52,27.73,0000 0000 0000 0000 000000
2018-01-29 11:21:47,0.24,4.75,0.00,21.17,25.14,28.42,14.18,48.86,1025.40,2029.99,1938.92,2061.46,2364.63,599.89,604.74,27.78,0000 0000 0000 0000 000000
2018-01-29 11:26:49,0.24,4.76,0.00,21.13,25.11,28.37,14.17,48.78,1025.40,2029.99,1936.33,2059.69,2362.52,600.03,604.99,27.83,0000 0000 0000 0000 000000
2018-01-29 11:31:50,0.25,4.78,0.00,21.09,25.09,28.37,14.28,48.82,1025.40,2029.99,1933.52,2057.91,2360.50,600.19,605.34,27.88,0000 0000 0000 0000 000000
2018-01-29 11:36:51,0.23,4.79,0.00,21.07,25.06,28.30,14.18,48.76,1025.40,2030.03,1930.91,2056.26,2358.50,599.97,605.12,27.93,0000 0000 0000 0000 000000
2018-01-29 11:41:52,0.23,4.80,0.00,21.04,25.03,28.29,14.24,48.76,1025.37,2030.04,1928.38,2054.57,2356.61,600.02,605.28,27.98,0000 0000 0000 0000 000000
2018-01-29 11:46:54,0.26,4.81,0.00,21.01,25.00,28.26,14.22,48.80,1025.22,2030.29,1925.89,2052.93,2354.82,600.01,605.10,28.03,0000 0000 0000 0000 000000
2018-01-29 11:51:55,0.26,4.82,0.00,20.98,24.97,28.22,14.15,48.81,1025.09,2030.62,1923.40,2051.36,2353.00,599.94,605.07,28.08,0000 0000 0000 0000 000000
2018-01-29 11:56:56,0.24,4.84,0.00,20.97,24.95,28.20,14.22,48.80,1025.05,2030.90,1921.03,2049.81,2351.24,600.05,605.05,28.13,0000 0000 0000 0000 000000
2018-01-29 12:01:58,0.21,4.85,0.00,20.94,24.91,28.16,14.27,48.74,1024.97,2030.97,1918.85,2048.27,2349.38,599.99,605.27,28.18,0000 0000 0000 0000 000000
2018-01-29 12:06:59,0.21,4.86,0.00,20.91,24.88,28.12,14.29,48.67,1024.92,2030.99,1916.41,2046.85,2347.62,600.24,605.38,28.23,0000 0000 0000 0000 000000
2018-01-29 12:12:00,0.21,4.87,0.00,20.89,24.85,28.13,14.25,48.77,1024.94,2030.99,1914.02,2045.52,2345.87,600.13,605.35,28.28,0000 0000 0000 0000 000000
2018-01-29 12:17:02,0.19,4.88,0.00,20.86,24.82,28.08,14.22,48.74,1024.94,2031.00,1911.73,2044.08,2344.28,600.09,605.30,28.33,0000 0000 0000 0000 000000
2018-01-29 12:22:03,0.22,4.89,0.00,20.82,24.78,28.06,14.20,48.69,1024.92,2031.03,1909.37,2042.56,2342.49,600.04,605.37,28.38,0000 0000 0000 0000 000000
2018-01-29 12:27:05,0.24,4.90,0.00,20.80,24.75,28.04,14.26,48.73,1024.92,2031.20,1906.97,2040.99,2340.70,600.20,605.58,28.43,0000 0000 0000 0000 000000
2018-01-29 12:32:06,0.27,4.92,0.00,20.78,24.72,27.99,14.22,48.78,1024.92,2031.59,1904.41,2039.49,2338.99,600.00,605.44,28.48,0000 0000 0000 0000 000000
2018-01-29 12:37:07,0.24,4.93,0.00,20.76,24.68,27.95,14.23,48.87,1024.92,2031.93,1902.05,2037.86,2337.23,599.94,605.27,28.53,0000 0000 0000 0000 000000
2018-01-29 12:42:08,0.24,4.94,0.00,20.72,24.65,27.93,14.19,48.81,1024.92,2031.98,1899.56,2036.11,2335.19,600.09,605.67,28.58,0000 0000 0000 0000 000000
2018-01-29 12:47:10,0.24,4.96,0.00,20.68,24.62,27.90,14.31,48.68,1024.92,2031.99,1897.01,2034.31,2333.07,600.25,605.85,28.63,0000 0000 0000 0000 000000
2018-01-29 12:52:11,0.25,4.97,0.00,20.66,24.59,27.88,14.21,48.79,1024.92,2031.99,1894.35,2032.51,2331.08,600.22,606.00,28.68,0000 0000 0000 0000 000000
2018-01-29 12:57:12,0.26,4.98,0.00,20.63,24.56,27.85,14.33,48.90,1024.92,2032.01,1891.62,2030.60,2329.05,600.19,605.91,28.73,0000 0000 0000 0000 000000